Tracking 28081 objects as of 27-Sep-2023
HD Live streaming from Space Station
objects crossing your sky now

GALAXY 36

Track GALAXY 36 now!
GALAXY 36 is classified as:


NORAD ID: 54742
Int'l Code: 2022-170B
Perigee: 35,783.5 km
Apogee: 35,805.1 km
Inclination: 0.0 °
Period: 1,436.1 minutes
Semi major axis: 42165 km
RCS: Unknown
Launch date: December 13, 2022
Source: United States (US)
Launch site: FRENCH GUIANA (FRGUI)
Your satellite tracking list
Your tracking list is empty




NASA's NSSDC Master Catalog

Two Line Element Set (TLE):
1 54742U 22170B   23270.07555639 -.00000199  00000-0  00000+0 0  9997
2 54742   0.0178 189.9220 0002566 301.6467 172.2415  1.00269870  2947
Source of the keplerian elements: AFSPC